Location: St. Louis
(38.6270°N, 90.1994°W)
Time: 01:30:51
(UTC-06:00)

Transit 4A - Pass Details

Date: 30 November 2021
Orbit: 863 x 981 km, 66.8° (Epoch: 24 January)

Event Time Altitude Azimuth Distance (km) Brightness Sun altitude
Rises 03:29:52 0° 342° (NNW) 3,602 - -40.3°
Reaches altitude 10° 03:33:16 10° 1° (N) 2,676 - -39.6°
Exits shadow 03:36:07 17° 28° (NNE) 2,205 10.1 -39.0°
Maximum altitude 03:37:30 18° 44° (NE) 2,146 10.1 -38.8°
Drops below altitude 10° 03:41:45 10° 87° (E) 2,712 11.0 -37.9°
Sets 03:45:13 0° 105° (ESE) 3,667 11.9 -37.3°
